Location: Newark
(42.8481°N, 0.4872°E)
Time: 18:38:45
(UTC+00:00)

Vanguard 2 - Pass Details

Date: 03 November 2020
Orbit: 554 x 2937 km, 32.9° (Epoch: 24 November)

Event Time Altitude Azimuth Distance (km) Brightness Sun altitude
Rises 01:57:55 0° 271° (W) 6,705 - -49.8°
Reaches altitude 10° 02:07:07 10° 247° (WSW) 5,759 - -48.4°
Maximum altitude 02:12:15 12° 229° (SW) 5,513 - -47.6°
Drops below altitude 10° 02:17:15 10° 212° (SSW) 5,521 - -46.8°
Sets 02:25:39 0° 185° (S) 6,088 - -45.4°
